Marshall, MI

6:35 AM EST on February 22, 2017 (GMT -0500)
Brooks

Weather History for KRMY - April, 2014

Change the Weather History Date:

Monday, April 21, 2014

  Actual Average (KBTL) Record (KBTL)
Temperature  
Mean Temperature 60 °F -  
Max Temperature 76 °F 58 °F 77 °F (2014)
Min Temperature 43 °F 37 °F 22 °F (2013)
Degree Days  
Heating Degree Days 6    
Growing Degree Days 10 (Base 50)    
Moisture  
Dew Point 42 °F    
Average Humidity 54    
Maximum Humidity 98    
Minimum Humidity 28    
Precipitation  
Precipitation 0.07 in - - ()
Sea Level Pressure  
Sea Level Pressure 29.92 in    
Wind  
Wind Speed 4 mph (SW)    
Max Wind Speed 16 mph    
Max Gust Speed 21 mph    
Visibility 10 miles    
Events Rain    
Averages and records for this station are not official NWS values.
T = Trace of Precipitation, MM = Missing Value Source: NWS Daily Summary

Daily Weather History Graph

Daily Weather History Graph

Search for Another Location

Airport or City:

Trip Planner

Search our weather history database for the weather conditions in past years. The results will help you decide how hot, cold, wet, or windy it might be!

Date:

Astronomy

Apr. 21, 2014 Rise Set
Actual Time 6:49 AM EDT 8:28 PM EDT
Civil Twilight 6:20 AM EDT 8:57 PM EDT
Nautical Twilight 5:44 AM EDT 9:33 PM EDT
Astronomical Twilight 5:05 AM EDT 10:12 PM EDT
Moon 1:59 AM EDT (4/21) 12:14 PM EDT (4/21)
Length of Visible Light 14h 37m
Length of Day
13h 38m
Waning Gibbous, 58% of the Moon is Illuminated
Apr 21
Waning Gibbous
Apr 22
Last Quarter
Apr 29
New
May 6
First Quarter
May 14
Full

Hourly Weather History & Observations

Time (EDT) Temp. Dew Point Humidity Pressure Visibility Wind Dir Wind Speed Gust Speed Precip Events Conditions
12:13 AM 47.8 °F 36.0 °F 63% 30.08 in 10.0 mi South 4.6 mph - N/A   Clear
12:34 AM 47.5 °F 34.3 °F 60% 30.07 in 10.0 mi Calm Calm - N/A   Clear
12:54 AM 50.9 °F 32.7 °F 50% 30.07 in 10.0 mi Calm Calm - N/A   Clear
1:13 AM 50.2 °F 33.3 °F 52% 30.07 in 10.0 mi Calm Calm - N/A   Clear
1:34 AM 46.6 °F 34.7 °F 63% 30.06 in 10.0 mi SSE 3.5 mph - N/A   Clear
1:54 AM 46.6 °F 34.0 °F 62% 30.06 in 10.0 mi Calm Calm - N/A   Clear
2:13 AM 46.4 °F 33.8 °F 62% 30.05 in 10.0 mi Calm Calm - N/A   Clear
2:34 AM 46.2 °F 35.1 °F 65% 30.05 in 10.0 mi Calm Calm - N/A   Clear
2:54 AM 44.8 °F 35.2 °F 69% 30.04 in 10.0 mi Calm Calm - N/A   Clear
3:13 AM 44.2 °F 35.6 °F 72% 30.04 in 10.0 mi Calm Calm - N/A   Clear
3:34 AM 46.4 °F 34.9 °F 64% 30.03 in 10.0 mi Calm Calm - N/A   Clear
3:54 AM 44.1 °F 36.3 °F 74% 30.03 in 10.0 mi Calm Calm - N/A   Clear
4:13 AM 44.8 °F 35.1 °F 69% 30.03 in 10.0 mi Calm Calm - N/A   Clear
4:34 AM 46.6 °F 34.7 °F 63% 30.03 in 10.0 mi Calm Calm - N/A   Clear
4:54 AM 43.7 °F 35.2 °F 72% 30.03 in 10.0 mi Calm Calm - N/A   Clear
5:13 AM 43.0 °F 35.6 °F 75% 30.03 in 10.0 mi Calm Calm - N/A   Clear
5:34 AM 45.5 °F 35.2 °F 67% 30.02 in 10.0 mi Calm Calm - N/A   Scattered Clouds
5:54 AM 45.3 °F 37.8 °F 75% 30.02 in 10.0 mi Calm Calm - N/A   Overcast
6:13 AM 48.0 °F 37.6 °F 67% 30.02 in 10.0 mi Calm Calm - N/A   Overcast
6:34 AM 51.4 °F 37.0 °F 58% 30.02 in 10.0 mi South 3.5 mph - N/A   Overcast
6:54 AM 53.4 °F 36.1 °F 52% 30.02 in 10.0 mi South 3.5 mph - N/A   Overcast
7:13 AM 54.7 °F 34.9 °F 47% 30.01 in 10.0 mi South 3.5 mph - N/A   Overcast
7:34 AM 54.5 °F 35.6 °F 49% 30.00 in 10.0 mi Calm Calm - N/A   Mostly Cloudy
7:54 AM 54.7 °F 36.5 °F 50% 30.00 in 10.0 mi South 3.5 mph - N/A   Overcast
8:13 AM 55.8 °F 36.3 °F 48% 30.00 in 10.0 mi SSW 3.5 mph - N/A   Overcast
8:34 AM 56.8 °F 37.0 °F 48% 30.00 in 10.0 mi SSW 3.5 mph - N/A   Overcast
8:54 AM 58.1 °F 37.6 °F 46% 30.00 in 10.0 mi SW 4.6 mph - N/A   Overcast
9:13 AM 59.9 °F 38.5 °F 45% 29.99 in 10.0 mi SSW 4.6 mph - N/A   Mostly Cloudy
9:34 AM 60.8 °F 39.0 °F 45% 29.99 in 10.0 mi SW 5.8 mph - N/A   Clear
9:53 AM 62.8 °F 39.7 °F 43% 29.98 in 10.0 mi SW 5.8 mph - N/A   Clear
10:13 AM 64.4 °F 40.1 °F 41% 29.97 in 10.0 mi SW 8.1 mph - N/A   Clear
10:34 AM 66.7 °F 40.6 °F 39% 29.97 in 10.0 mi SW 6.9 mph - N/A   Clear
10:54 AM 69.8 °F 41.9 °F 36% 29.95 in 10.0 mi WSW 10.4 mph - N/A   Clear
11:13 AM 69.8 °F 42.1 °F 37% 29.95 in 10.0 mi SSW 9.2 mph - N/A   Clear
11:34 AM 71.6 °F 42.3 °F 35% 29.94 in 10.0 mi SSW 9.2 mph - N/A   Clear
11:53 AM 72.5 °F 42.4 °F 34% 29.93 in 10.0 mi SW 8.1 mph - N/A   Clear
12:13 PM 73.2 °F 42.8 °F 33% 29.93 in 10.0 mi SSW 6.9 mph - N/A   Clear
12:34 PM 75.2 °F 43.0 °F 32% 29.92 in 10.0 mi WSW 11.5 mph 18.4 mph N/A   Clear
12:53 PM 73.9 °F 41.9 °F 32% 29.92 in 10.0 mi SW 8.1 mph 17.3 mph N/A   Clear
1:13 PM 73.6 °F 42.3 °F 32% 29.91 in 10.0 mi WSW 10.4 mph 19.6 mph N/A   Clear
1:34 PM 73.6 °F 43.0 °F 33% 29.90 in 10.0 mi SW 8.1 mph - N/A   Clear
1:53 PM 73.4 °F 42.3 °F 33% 29.89 in 10.0 mi SSW 13.8 mph - N/A   Clear
2:14 PM 73.6 °F 42.1 °F 32% 29.88 in 10.0 mi SW 10.4 mph - N/A   Clear
2:53 PM 75.4 °F 42.1 °F 30% 29.86 in 10.0 mi WSW 11.5 mph 17.3 mph N/A   Clear
3:14 PM 76.8 °F 41.5 °F 28% 29.86 in 10.0 mi SSW 13.8 mph 18.4 mph N/A   Clear
3:34 PM 75.2 °F 41.5 °F 30% 29.85 in 10.0 mi SSW 11.5 mph 20.7 mph N/A   Clear
3:53 PM 74.8 °F 41.9 °F 31% 29.84 in 10.0 mi SSW 12.7 mph 19.6 mph N/A   Clear
4:14 PM 74.8 °F 42.6 °F 31% 29.83 in 10.0 mi SSW 15.0 mph 20.7 mph N/A   Clear
4:34 PM 75.2 °F 42.6 °F 31% 29.82 in 10.0 mi North - - N/A   Clear
4:53 PM 74.8 °F 42.6 °F 31% 29.81 in 10.0 mi SW 12.7 mph 18.4 mph N/A   Scattered Clouds
5:14 PM 74.5 °F 42.8 °F 32% 29.80 in 10.0 mi SW 10.4 mph 18.4 mph N/A   Scattered Clouds
5:34 PM 73.6 °F 43.2 °F 34% 29.80 in 10.0 mi SW 10.4 mph - N/A   Overcast
5:53 PM 73.4 °F 43.7 °F 34% 29.79 in 10.0 mi SW 11.5 mph 16.1 mph N/A   Overcast
6:14 PM 73.4 °F 44.1 °F 35% 29.79 in 10.0 mi SSW 9.2 mph 17.3 mph N/A   Scattered Clouds
6:34 PM 72.9 °F 44.8 °F 37% 29.78 in 10.0 mi SW 16.1 mph 19.6 mph N/A   Mostly Cloudy
6:53 PM 72.1 °F 45.1 °F 38% 29.78 in 10.0 mi SW 9.2 mph 17.3 mph N/A   Overcast
7:14 PM 70.7 °F 46.0 °F 41% 29.78 in 10.0 mi WSW 9.2 mph - N/A   Mostly Cloudy
7:33 PM 69.8 °F 45.7 °F 42% 29.77 in 10.0 mi West 3.5 mph - N/A   Mostly Cloudy
7:53 PM 68.2 °F 46.4 °F 46% 29.77 in 10.0 mi WNW 4.6 mph - N/A   Mostly Cloudy
8:14 PM 67.5 °F 47.3 °F 48% 29.79 in 10.0 mi West 10.4 mph 18.4 mph N/A   Mostly Cloudy
8:33 PM 60.4 °F 53.6 °F 78% 29.82 in 10.0 mi North - - N/A Rain Rain
8:53 PM 58.1 °F 54.7 °F 88% 29.82 in 10.0 mi West 10.4 mph 18.4 mph 0.01 in Rain Light Rain
9:14 PM 57.6 °F 54.5 °F 90% 29.82 in 10.0 mi West 8.1 mph - N/A Rain Light Rain
9:33 PM 57.2 °F 54.5 °F 91% 29.82 in 10.0 mi West 6.9 mph - N/A Rain Light Rain
9:53 PM 56.8 °F 54.7 °F 92% 29.81 in 10.0 mi West 9.2 mph - 0.01 in Rain Light Rain
10:14 PM 56.5 °F 54.7 °F 94% 29.81 in 10.0 mi West 6.9 mph - 0.01 in Rain Light Rain
10:33 PM 56.3 °F 54.7 °F 94% 29.80 in 10.0 mi West 5.8 mph - 0.01 in Rain Rain
10:53 PM 56.3 °F 54.9 °F 95% 29.79 in 10.0 mi SW 3.5 mph - 0.02 in   Light Drizzle
11:14 PM 55.9 °F 55.0 °F 97% 29.79 in 7.0 mi West 3.5 mph - N/A Rain Rain
11:33 PM 55.9 °F 55.4 °F 98% 29.78 in 5.0 mi West 4.6 mph - 0.01 in Rain Light Rain
11:54 PM 56.3 °F 55.4 °F 97% 29.77 in 5.0 mi WSW 3.5 mph - 0.03 in Rain Rain